Luqa, Malta

11:12 AM CEST on May 25, 2017 (GMT +0200)
Luqa

Weather History for LMML - November, 2012

Change the Weather History Date:

Friday, November 23, 2012

  Actual Average Record
Temperature  
Mean Temperature 63 °F -  
Max Temperature 70 °F 63 °F 71 °F (2015)
Min Temperature 56 °F 53 °F 48 °F (1998)
Degree Days  
Heating Degree Days 2    
Growing Degree Days 13 (Base 50)    
Moisture  
Dew Point 58 °F    
Average Humidity 85    
Maximum Humidity 100    
Minimum Humidity 61    
Precipitation  
Precipitation 0.01 in 0.14 in - ()
Sea Level Pressure  
Sea Level Pressure 30.19 in    
Wind  
Wind Speed 3 mph ()    
Max Wind Speed 7 mph    
Max Gust Speed -    
Visibility 6.0 miles    
Events      
Averages and records for this station are not official NWS values.
T = Trace of Precipitation, MM = Missing Value Source: Averaged Metar Reports

Daily Weather History Graph

Daily Weather History Graph

Search for Another Location

Airport or City:

Trip Planner

Search our weather history database for the weather conditions in past years. The results will help you decide how hot, cold, wet, or windy it might be!

Date:

Astronomy

Nov. 23, 2012 Rise Set
Actual Time 6:46 AM CET 4:50 PM CET
Civil Twilight 6:18 AM CET 5:18 PM CET
Nautical Twilight 5:47 AM CET 5:49 PM CET
Astronomical Twilight 5:16 AM CET 6:20 PM CET
Moon 1:49 PM CET (11/23) 1:56 AM CET (11/23)
Length of Visible Light 10h 59m
Length of Day
10h 04m
Waxing Gibbous, 77% of the Moon is Illuminated
Nov 23
Waxing Gibbous
Nov 28
Full
Dec 6
Last Quarter
Dec 13
New
Dec 20
First Quarter

Hourly Weather History & Observations

Time (CET) Temp. Dew Point Humidity Pressure Visibility Wind Dir Wind Speed Gust Speed Precip Events Conditions
12:15 AM 59.0 °F 57.2 °F 94% 30.18 in - North 1.2 mph - N/A   Clear
12:45 AM 59.0 °F 55.4 °F 88% 30.18 in 5.6 mi NNW 2.3 mph - N/A   Unknown
1:00 AM 58 °F 56 °F 92% 30.19 in 6 mi NNW 1.2 mph - -  
1:15 AM 59.0 °F 57.2 °F 94% 30.18 in - Variable 2.3 mph - N/A   Clear
1:45 AM 59.0 °F 57.2 °F 94% 30.18 in 6.2 mi NNW 3.5 mph - N/A   Partly Cloudy
2:15 AM 59.0 °F 57.2 °F 94% 30.18 in - NNW 2.3 mph - N/A   Clear
2:45 AM 59.0 °F 57.2 °F 94% 30.18 in 5.6 mi NW 2.3 mph - N/A   Unknown
3:15 AM 59.0 °F 57.2 °F 94% 30.18 in 5.6 mi NW 2.3 mph - N/A   Unknown
3:45 AM 57.2 °F 55.4 °F 94% 30.18 in 5.0 mi NW 2.3 mph - N/A   Unknown
4:00 AM 58 °F 56 °F 93% 30.19 in 6 mi WNW 2.3 mph - -   Scattered Clouds
4:15 AM 59.0 °F 57.2 °F 94% 30.18 in 6.2 mi NW 2.3 mph - N/A   Partly Cloudy
4:45 AM 59.0 °F 57.2 °F 94% 30.18 in 6.2 mi NW 2.3 mph - N/A   Partly Cloudy
5:15 AM 57.2 °F 55.4 °F 94% 30.18 in 6.2 mi NW 1.2 mph - N/A   Partly Cloudy
5:45 AM 59.0 °F 57.2 °F 94% 30.18 in 6.2 mi WNW 2.3 mph - N/A   Partly Cloudy
6:15 AM 57.2 °F 55.4 °F 94% 30.18 in 6.2 mi Calm Calm - N/A   Partly Cloudy
6:45 AM 57.2 °F 57.2 °F 100% 30.18 in 6.2 mi NW 1.2 mph - N/A   Partly Cloudy
7:00 AM 58 °F 57 °F 95% 30.20 in 6 mi NNW 1.2 mph - -   Scattered Clouds
7:15 AM 57.2 °F 57.2 °F 100% 30.18 in 6.2 mi NNW 2.3 mph - N/A   Partly Cloudy
7:45 AM 60.8 °F 59.0 °F 94% 30.18 in 6.2 mi Variable 1.2 mph - N/A   Partly Cloudy
8:15 AM 62.6 °F 59.0 °F 88% 30.21 in 6.2 mi West 3.5 mph - N/A   Partly Cloudy
8:45 AM 64.4 °F 60.8 °F 88% 30.21 in 6.2 mi Variable 2.3 mph - N/A   Partly Cloudy
9:15 AM 66.2 °F 60.8 °F 83% 30.21 in 6.2 mi Variable 1.2 mph - N/A   Partly Cloudy
9:45 AM 68.0 °F 60.8 °F 78% 30.21 in 6.2 mi Variable 1.2 mph - N/A   Partly Cloudy
10:00 AM 69 °F 61 °F 68% 30.22 in 7 mi NE 2.3 mph - -   Scattered Clouds
10:15 AM 68.0 °F 59.0 °F 73% 30.21 in 6.2 mi ESE 3.5 mph - N/A   Partly Cloudy
10:45 AM 69.8 °F 59.0 °F 68% 30.21 in 6.2 mi Variable 1.2 mph - N/A   Scattered Clouds
11:15 AM 69.8 °F 59.0 °F 68% 30.21 in 6.2 mi Variable 1.2 mph - N/A   Partly Cloudy
11:45 AM 69.8 °F 57.2 °F 64% 30.21 in 6.2 mi Calm Calm - N/A   Scattered Clouds
12:15 PM 69.8 °F 59.0 °F 68% 30.21 in 6.2 mi Variable 1.2 mph - N/A   Scattered Clouds
12:45 PM 68.0 °F 59.0 °F 73% 30.18 in 6.2 mi ESE 4.6 mph - N/A   Scattered Clouds
1:00 PM 68 °F 60 °F 67% 30.19 in 9 mi East 4.6 mph - -  
1:15 PM 68.0 °F 59.0 °F 73% 30.18 in 6.2 mi ESE 5.8 mph - N/A   Mostly Cloudy
1:45 PM 68.0 °F 59.0 °F 73% 30.18 in 6.2 mi ESE 3.5 mph - N/A   Mostly Cloudy
2:15 PM 68.0 °F 59.0 °F 73% 30.18 in 6.2 mi Variable 2.3 mph - N/A   Mostly Cloudy
2:45 PM 69.8 °F 59.0 °F 68% 30.18 in 6.2 mi SW 4.6 mph - N/A   Partly Cloudy
3:15 PM 68.0 °F 59.0 °F 73% 30.18 in 6.2 mi SW 4.6 mph - N/A   Scattered Clouds
3:45 PM 68.0 °F 59.0 °F 73% 30.18 in 6.2 mi WSW 5.8 mph - N/A   Scattered Clouds
4:00 PM 69 °F 59 °F 61% 30.19 in 7 mi WSW 5.8 mph - -   Partly Cloudy
4:15 PM 68.0 °F 59.0 °F 73% 30.18 in 6.2 mi WSW 5.8 mph - N/A   Scattered Clouds
4:45 PM 68.0 °F 59.0 °F 73% 30.18 in 6.2 mi WNW 6.9 mph - N/A   Scattered Clouds
5:15 PM 66.2 °F 59.0 °F 78% 30.18 in 6.2 mi NW 5.8 mph - N/A   Scattered Clouds
5:45 PM 64.4 °F 59.0 °F 83% 30.18 in 6.2 mi WNW 4.6 mph - N/A   Scattered Clouds
6:15 PM 64.4 °F 59.0 °F 83% 30.18 in 6.2 mi NW 4.6 mph - N/A   Scattered Clouds
6:45 PM 62.6 °F 59.0 °F 88% 30.18 in 6.2 mi NW 4.6 mph - N/A   Partly Cloudy
7:00 PM 63 °F 59 °F 83% 30.21 in 6 mi NW 4.6 mph - -   Partly Cloudy
7:15 PM 62.6 °F 59.0 °F 88% 30.21 in 6.2 mi NW 4.6 mph - N/A   Partly Cloudy
7:45 PM 60.8 °F 59.0 °F 94% 30.21 in 6.2 mi NNW 4.6 mph - N/A   Partly Cloudy
8:15 PM 60.8 °F 59.0 °F 94% 30.21 in 6.2 mi NW 3.5 mph - N/A   Partly Cloudy
8:45 PM 60.8 °F 59.0 °F 94% 30.21 in 6.2 mi NNW 4.6 mph - N/A   Partly Cloudy
9:15 PM 62.6 °F 59.0 °F 88% 30.21 in 6.2 mi NW 3.5 mph - N/A   Partly Cloudy
9:45 PM 60.8 °F 59.0 °F 94% 30.21 in 6.2 mi NW 4.6 mph - N/A   Haze
10:00 PM 61 °F 58 °F 88% 30.22 in 6 mi NW 3.5 mph - -   Scattered Clouds
10:03 PM 60.8 °F 59.0 °F 94% 30.21 in 4.3 mi WNW 4.6 mph - N/A   Haze
10:15 PM 60.8 °F 59.0 °F 94% 30.21 in 3.7 mi NW 4.6 mph - N/A   Partly Cloudy
10:45 PM 60.8 °F 57.2 °F 88% 30.21 in 4.3 mi NW 3.5 mph - N/A   Unknown
11:01 PM 59.0 °F 57.2 °F 94% 30.21 in 5.6 mi WNW 3.5 mph - N/A   Unknown
11:15 PM 60.8 °F 57.2 °F 88% 30.21 in 5.6 mi NW 5.8 mph - N/A   Unknown
11:33 PM 60.8 °F 57.2 °F 88% 30.21 in 4.3 mi NW 4.6 mph - N/A   Haze
11:45 PM 60.8 °F 57.2 °F 88% 30.21 in 3.1 mi NW 4.6 mph - N/A   Haze